Location: Los Gatos B&B
(42.6926°N, 77.0646°W)
Time: 05:19:17
(UTC-04:00)

Daily predictions for brighter satellites

Satellite Brightness Start Highest point End
(mag) Time Altitude Azimuth Time Altitude Azimuth Time Altitude Azimuth
H-2A R/B 4.2 00:10:18 23° NW 00:10:18 23° NW 00:12:19 10° NNW
ATLAS 3B R/B 4.1 00:06:39 10° WNW 00:11:07 23° WSW 00:11:07 23° WSW
Cosmos 2219 Rocket 3.0 00:14:23 47° NW 00:14:23 47° NW 00:19:28 10° NNE
SL-16 R/B 3.8 00:21:37 25° NE 00:21:37 25° NE 00:24:07 10° NE
COSMOS 2428 4.3 00:17:01 25° W 00:18:46 29° NW 00:23:44 10° N
CZ-2C R/B 3.7 00:15:57 10° NNE 00:19:21 40° NNE 00:19:21 40° NNE
Terra 4.2 00:24:36 15° WNW 00:24:36 15° WNW 00:26:29 10° NW
NOSS 3-2 (C) 4.2 00:19:32 10° NW 00:26:27 59° WSW 00:26:27 59° WSW
Cosmos 2333 Rocket 3.2 00:32:47 42° NW 00:32:47 42° NW 00:37:39 10° NNE
NOSS 3-4 (A) 4.4 00:54:01 41° WNW 00:54:43 43° NW 01:00:56 10° NNE
NOSS 3-4 (C) 4.4 00:54:10 42° WNW 00:54:49 43° NW 01:01:02 10° NNE
Mayak 1.4 00:51:17 10° NNE 00:52:18 17° NNE 00:52:18 17° NNE
Cosmos 2237 Rocket 3.4 00:57:08 38° NW 00:57:08 38° NW 01:01:36 10° NNE
Cosmos 2369 Rocket 4.0 00:54:59 10° N 00:59:32 24° NE 00:59:57 23° ENE
CENTAUR R/B 3.0 00:57:13 10° NW 01:04:37 77° WNW 01:04:37 77° WNW
Nadezhda 3 Rocket 4.5 01:02:36 10° N 01:07:39 59° N 01:07:39 59° N
USA 215 3.4 01:13:10 68° N 01:13:10 68° N 01:19:07 10° NW
ATLAS CENTAUR R/B 3.8 01:28:30 10° NW 01:35:02 41° NW 01:35:02 41° NW
COSMOS 2455 4.3 01:39:18 10° NW 01:42:18 29° NW 01:42:18 29° NW
SL-16 R/B 3.7 02:03:29 29° NW 02:03:29 29° NW 02:07:57 10° N
Cosmos 1943 Rocket 2.7 02:26:38 10° NNW 02:31:11 55° NNE 02:31:11 55° NNE
SL-16 R/B 3.7 02:30:31 28° ESE 02:32:55 38° ENE 02:38:34 10° N
Cosmos 2218 Rocket 4.4 02:35:42 54° NW 02:35:42 54° NW 02:41:19 10° N
Resurs 1-4 Rocket 3.6 02:33:52 10° NE 02:38:16 26° E 02:38:21 26° E
Gblst 52 Del rocket 4.5 02:41:58 69° NE 02:41:58 69° NE 02:46:55 10° ENE
Cosmos 2369 Rocket 3.3 02:38:22 10° NNW 02:41:42 35° NW 02:41:42 35° NW
CZ-3A R/B 3.5 02:36:20 10° NW 02:47:22 80° NE 02:52:40 10° SE
Cosmos 371 Rocket 4.4 02:48:53 38° NNW 02:48:53 38° NNW 02:52:12 10° N
CZ-2D R/B 3.3 02:43:53 10° NNE 02:48:40 32° E 02:48:55 32° ESE
Cosmos 1943 3.6 02:56:08 53° NW 02:56:08 53° NW 03:01:11 10° NNE
Cosmos 841 Rocket 3.8 03:01:51 65° NNE 03:01:51 65° NNE 03:06:16 10° NNE
USA 32 4.4 02:55:55 10° N 03:01:01 61° ENE 03:01:01 61° ENE
Helios 1A Rocket 4.4 03:01:45 10° N 03:04:07 33° N 03:04:07 33° N
Lacrosse 5 4.5 03:03:14 10° NNW 03:06:50 19° NNE 03:10:25 10° ENE
COBE Rocket 4.4 03:03:47 10° N 03:07:53 53° NNW 03:07:53 53° NNW
ARIANE 5 R/B 3.3 03:06:37 10° NNE 03:11:38 43° E 03:12:11 42° ESE
Cosmos 1000 Rocket 4.3 03:06:21 10° N 03:12:37 80° W 03:12:56 77° SW
SL-08 R/B 4.1 03:15:58 44° NNW 03:15:58 44° NNW 03:19:17 10° NNW
BREEZE-M DEB (TANK) 3.8 03:13:14 52° WNW 03:14:39 70° NNW 03:33:10 10° ENE
Cosmos 1626 4.2 03:13:11 10° N 03:14:42 23° N 03:14:42 23° N
UNK 4.0 03:19:10 65° NNE 03:19:10 65° NNE 03:23:13 10° N
Cosmos 304 Rocket 4.0 03:20:35 63° N 03:20:35 63° N 03:24:42 10° NNE
Cosmos 2239 Rocket 4.3 03:19:57 72° SSW 03:20:38 82° W 03:26:59 10° N
ADEOS Rocket 2.9 03:16:25 10° N 03:21:45 59° WNW 03:21:45 59° WNW
Cosmos 1400 Rocket 4.0 03:20:01 10° N 03:23:33 40° ENE 03:23:33 40° ENE
Cosmos 1726 4.1 03:29:16 23° E 03:29:31 23° E 03:32:30 10° NE
Cosmos 1535 Rocket 4.4 03:28:55 64° SW 03:29:52 77° W 03:36:19 10° N
IRS-1D 3.4 03:30:51 10° NNE 03:36:01 83° ESE 03:36:35 71° S
Cosmos 2221 2.5 03:41:00 78° NNE 03:41:00 78° NNE 03:45:05 10° N
Cosmos 1805 Rocket 4.0 03:37:09 10° N 03:41:34 59° E 03:42:20 51° ESE
Cosmos 2058 4.4 03:37:53 10° NNW 03:40:03 28° NW 03:40:03 28° NW
ADEOS 3.6 03:38:55 10° NNE 03:44:10 74° ESE 03:45:16 54° SSE
Spot 4 Rocket 3.9 03:39:21 10° NNE 03:44:31 82° WNW 03:45:08 69° SW
NPP 4.2 03:42:12 10° N 03:47:12 40° WNW 03:47:30 40° WNW
COSMOS 2406 3.3 03:47:05 51° S 03:48:28 72° ESE 03:54:09 10° NNE
Cosmos 2285 Rocket 4.2 03:46:52 38° S 03:49:18 65° ESE 03:55:38 10° NNE
Cosmos 372 Rocket 3.8 03:45:05 10° NNW 03:50:16 75° WSW 03:51:00 63° SSW
Cosmos 2098 Rocket 3.9 03:52:13 52° WSW 03:53:03 57° W 03:58:06 10° N
IRS-1C 4.4 03:48:09 10° N 03:53:17 48° WNW 03:53:50 46° W
CBERS 1 LM4 rocket 4.5 03:48:28 10° N 03:53:38 77° WNW 03:54:37 58° SW
Okean O Rocket 4.4 03:56:18 10° ENE 03:58:19 13° E 04:00:18 10° ESE
Cosmos 540 Rocket 3.6 03:58:15 51° W 03:58:51 54° WNW 04:03:53 10° NNE
Meteor 2-1 Rocket 4.4 03:58:39 46° WSW 03:59:23 50° WNW 04:04:47 10° N
Cosmos 1908 3.8 04:03:42 46° NW 04:03:42 46° NW 04:06:51 10° N
Cosmos 783 Rocket 4.4 04:05:05 50° SSW 04:06:30 83° WNW 04:11:47 10° NNE
MOS 1 Rocket 3.1 04:02:42 10° N 04:06:57 58° WNW 04:07:19 56° W
Cosmos 1300 3.1 04:12:33 40° SSE 04:13:38 59° E 04:17:25 10° NNE
Cosmos 1125 Rocket 4.0 04:09:37 10° NW 04:14:14 38° W 04:14:14 38° W
Cosmos 1943 Rocket 4.1 04:11:47 10° WNW 04:12:39 13° WNW 04:12:39 13° WNW
Sich 1 2.9 04:11:33 10° N 04:15:59 88° WSW 04:17:46 35° S
SL-16 R/B 3.0 04:15:37 35° WSW 04:16:30 37° W 04:22:12 10° NNW
BREEZE M DEB (TANK) 3.6 04:17:34 25° E 04:17:34 25° E 04:18:43 10° ESE
Resurs 1-4 Rocket 2.7 04:13:19 10° N 04:18:13 40° WNW 04:19:26 35° W
Cosmos 2123 Rocket 4.4 04:13:14 10° NNW 04:19:06 43° W 04:20:54 34° SW
CZ-2D R/B 3.2 04:16:20 10° N 04:20:22 81° WNW 04:21:16 52° SSW
Cosmos 1656 Rocket 4.2 04:18:24 10° NW 04:23:32 36° WSW 04:24:03 35° WSW
Cosmos 1315 Rocket 2.7 04:23:11 10° NNW 04:27:13 69° W 04:28:33 39° SSW
CZ-2D R/B 3.0 04:23:54 10° N 04:28:42 34° WNW 04:30:14 29° W
OPS 8737 4.4 04:29:28 56° WSW 04:30:03 73° NW 04:33:24 10° NNE
Cosmos 1459 Rocket 4.1 04:25:34 13° S 04:30:58 74° E 04:37:02 10° NNE
Cosmos 1470 Rocket 4.2 04:27:43 10° N 04:31:59 55° E 04:36:13 10° SSE
Cosmos 1538 Rocket 4.1 04:30:40 24° S 04:33:58 79° ESE 04:39:21 10° NNE
Cosmos 2228 Rocket 3.4 04:31:12 18° S 04:34:26 67° E 04:38:51 10° NNE
USA 229 DEB 4.0 04:30:01 10° NW 04:36:52 49° WSW 04:43:49 10° S
USA 229 4.0 04:30:08 10° NW 04:36:59 49° WSW 04:43:56 10° S
Cosmos 2082 Rocket 3.7 04:35:58 10° SSE 04:40:51 32° ESE 04:45:46 10° NE
Cosmos 1515 Rocket 3.9 04:37:53 14° S 04:41:31 65° E 04:45:56 10° NNE
NOSS 3-1 (A) 4.2 04:34:32 10° NW 04:42:10 78° NE 04:50:36 10° SE
PSLV R/B 3.1 04:42:54 50° WSW 04:43:30 64° S 04:46:44 10° ESE
Cosmos 1633 Rocket 3.2 04:40:05 10° NNW 04:44:21 52° W 04:46:49 23° SSW
Meteor 2-3 Rocket 4.4 04:40:03 10° N 04:45:35 56° ENE 04:51:10 10° SSE
USA 161 2.1 04:47:07 29° NNW 04:47:07 29° NNW 04:48:17 10° NNW
Tiangong 2 3.2 04:46:42 15° SSE 04:47:31 17° SSE 04:49:41 10° ESE
Cosmos 292 Rocket 4.2 04:46:24 28° WSW 04:48:33 46° WNW 04:53:12 10° N
Cosmos 2061 Rocket 4.1 04:43:54 10° S 04:50:21 89° WNW 04:56:49 10° N
ARIANE 5 R/B 3.8 04:46:15 10° N 04:50:29 26° WNW 04:52:31 20° W
Lacrosse 5 2.8 04:45:55 10° NW 04:50:52 49° NE 04:55:47 10° ESE
CZ-4B R/B 3.6 04:51:43 10° NNE 04:56:09 63° E 05:00:37 10° S
CZ-4B R/B 4.2 04:52:00 10° NNE 04:57:17 46° E 05:02:25 10° S
UNKNOWN OBJECT B 4.1 04:55:12 10° NNW 04:58:37 26° WNW 05:00:00 21° W
Cosmos 1680 Rocket 4.5 04:56:55 10° S 05:01:57 48° ESE 05:07:03 10° NNE
Cosmos 1726 3.5 05:03:53 20° W 05:04:46 21° WNW 05:07:41 10° NNW
Cosmos 2369 3.7 05:01:26 10° NNW 05:07:08 86° ENE 05:12:47 10° SSE
Cosmos 1328 Rocket 3.9 05:05:17 18° SW 05:08:08 44° WNW 05:12:18 10° N
ADEOS II 2.0 05:03:48 10° N 05:09:04 77° WNW 05:14:18 10° SSW
SL-27 R/B 3.8 05:08:12 20° W 05:09:22 24° WNW 05:12:13 10° N
Cosmos 1892 2.6 05:06:26 10° N 05:10:16 88° W 05:14:07 10° S
Cosmos 2016 Rocket 3.9 05:04:17 10° S 05:10:24 79° W 05:16:32 10° N
USA 234 4.5 05:04:35 10° ENE 05:10:29 35° SE 05:16:20 10° SSW
Meteor 1-27 4.2 05:06:03 10° S 05:11:44 89° E 05:17:22 10° N
NOSS 3-1 (C) 4.1 05:04:19 10° NW 05:11:50 60° WSW 05:20:04 10° SSE
MOS 1-B 4.4 05:06:47 10° N 05:12:34 65° WNW 05:18:17 10° SSW
Landsat 4 4.2 05:09:08 10° SSE 05:12:49 64° ENE 05:16:33 10° N
Hubble Space Telescope 3.1 05:13:34 10° S 05:14:26 11° S 05:15:18 10° SSE
In-Cosmos 22 Rocket 4.4 05:11:26 10° NNW 05:16:32 44° W 05:21:33 10° SSW
Shenzhou-11 Module 3.1 05:14:51 18° SSW 05:16:41 33° SSE 05:19:31 10° E
PSLV R/B 3.5 05:12:40 10° NNE 05:17:02 85° WNW 05:21:20 10° SSW
BREEZE-M DEB (TANK) 3.7 05:20:14 12° SSW 05:20:14 12° SSW 05:21:11 10° S
Cosmos 1656 3.8 05:16:01 10° NNW 05:21:46 87° ENE 05:27:28 10° SSE
Cosmos 1725 Rocket 4.0 05:16:51 10° S 05:23:02 88° W 05:29:15 10° N
Cosmos 1802 Rocket 4.2 05:18:32 10° SSW 05:24:33 52° WNW 05:30:41 10° N
Cosmos 1825 4.1 05:22:04 10° N 05:25:34 34° ENE 05:29:03 10° SE
Cosmos 1933 Rocket 4.0 05:21:55 10° NNW 05:26:08 42° W 05:30:19 10° SSW
Abrixas 2.8 05:29:40 10° WNW 05:32:06 34° SW 05:34:31 10° SE
COSMOS 2487 2.4 05:29:21 10° SSW 05:32:53 79° WNW 05:36:27 10° NNE
Okean O Rocket 1.7 05:30:42 10° N 05:35:05 61° WNW 05:39:25 10° SSW
Cosmos 1833 Rocket 2.7 05:34:08 10° SSW 05:39:47 87° WNW 05:45:28 10° NNE
Cosmos 1408 3.3 05:38:25 10° N 05:42:01 57° E 05:45:34 10° SSE
Cosmos 1151 Rocket 3.8 05:39:09 10° SW 05:43:02 32° WNW 05:46:54 10° N
Tsikada Rocket 4.1 05:37:08 10° NNW 05:43:23 67° W 05:49:41 10° S
Cosmos 1707 Rocket 4.0 05:41:26 10° S 05:45:49 68° E 05:50:11 10° NNE
